• In Lithuania
  • List of Countries
  • For 7 days
  • Water Temperature
  • Satellite Maps
  • Weather Map
  • Weather Widgets
  • user-avatar
    Login

    Hourly Weather Sydney

    Today, 23 June, Saturday

    Time Temperature Precipitation Wind Pressure Humidity
    00:00 +9°C° 0 mm 2 mps 768 mmHg 80%
    01:00 +9°C° 0 mm 2 mps 768 mmHg 78%
    02:00 +8°C° 0 mm 2 mps 768 mmHg 75%
    03:00 +8°C° 0 mm 2 mps 768 mmHg 73%
    04:00 +8°C° 0 mm 2 mps 767 mmHg 70%
    05:00 +7°C° 0 mm 2 mps 767 mmHg 67%
    06:00 +7°C° 0 mm 2 mps 767 mmHg 65%
    07:00 +7°C° 0 mm 2 mps 768 mmHg 63%
    08:00 +9°C° 0 mm 2 mps 767 mmHg 55%
    09:00 +13°C° 0 mm 2 mps 767 mmHg 46%
    10:00 +15°C° 0 mm 2 mps 767 mmHg 36%
    11:00 +17°C° 0 mm 2 mps 767 mmHg 32%
    12:00 +19°C° 0 mm 2 mps 767 mmHg 29%
    13:00 +21°C° 0 mm 1 mps 766 mmHg 25%
    14:00 +21°C° 0 mm 1 mps 766 mmHg 29%
    15:00 +20°C° 0 mm 1 mps 766 mmHg 33%
    16:00 +19°C° 0 mm 1 mps 766 mmHg 36%
    17:00 +16°C° 0 mm 1 mps 766 mmHg 42%
    18:00 +14°C° 0 mm 2 mps 767 mmHg 47%
    19:00 +12°C° 0 mm 2 mps 767 mmHg 52%
    20:00 +10°C° 0 mm 3 mps 768 mmHg 55%
    21:00 +10°C° 0 mm 3 mps 768 mmHg 58%
    22:00 +8°C° 0 mm 4 mps 768 mmHg 60%
    23:00 +8°C° 0 mm 3 mps 768 mmHg 63%

    Tomorrow, 24 June, Sunday

    Time Temperature Precipitation Wind Pressure Humidity
    00:00 +8°C° 0 mm 3 mps 768 mmHg 65%
    01:00 +7°C° 0 mm 3 mps 768 mmHg 68%
    02:00 +7°C° 0 mm 3 mps 768 mmHg 69%
    03:00 +7°C° 0 mm 3 mps 768 mmHg 70%
    04:00 +5°C° 0 mm 3 mps 768 mmHg 70%
    05:00 +5°C° 0 mm 4 mps 769 mmHg 71%
    06:00 +5°C° 0 mm 4 mps 769 mmHg 71%
    07:00 +5°C° 0 mm 4 mps 769 mmHg 71%
    08:00 +8°C° 0 mm 4 mps 769 mmHg 66%
    09:00 +10°C° 0 mm 5 mps 770 mmHg 61%
    10:00 +13°C° 0 mm 5 mps 770 mmHg 55%
    11:00 +14°C° 0 mm 5 mps 769 mmHg 52%
    12:00 +15°C° 0 mm 5 mps 769 mmHg 48%
    13:00 +16°C° 0 mm 5 mps 768 mmHg 45%
    14:00 +16°C° 0 mm 5 mps 768 mmHg 47%
    15:00 +15°C° 0 mm 4 mps 768 mmHg 48%
    16:00 +15°C° 0 mm 4 mps 768 mmHg 50%
    17:00 +13°C° 0 mm 4 mps 769 mmHg 57%
    18:00 +11°C° 0 mm 4 mps 769 mmHg 64%
    19:00 +10°C° 0 mm 3 mps 770 mmHg 71%
    20:00 +9°C° 0 mm 3 mps 770 mmHg 73%
    21:00 +9°C° 0 mm 3 mps 771 mmHg 75%
    22:00 +8°C° 0 mm 3 mps 771 mmHg 78%
    23:00 +8°C° 0 mm 3 mps 771 mmHg 79%

    Day after tomorrow, 25 June, Monday

    Time Temperature Precipitation Wind Pressure Humidity
    00:00 +7°C° 0 mm 3 mps 771 mmHg 81%
    01:00 +7°C° 0 mm 3 mps 771 mmHg 83%
    02:00 +7°C° 0 mm 3 mps 771 mmHg 83%
    03:00 +7°C° 0 mm 3 mps 771 mmHg 83%
    04:00 +5°C° 0 mm 3 mps 771 mmHg 84%
    05:00 +5°C° 0 mm 3 mps 771 mmHg 84%
    06:00 +5°C° 0 mm 3 mps 771 mmHg 85%
    07:00 +5°C° 0 mm 3 mps 772 mmHg 85%
    08:00 +8°C° 0 mm 3 mps 772 mmHg 75%
    09:00 +11°C° 0 mm 3 mps 772 mmHg 65%
    10:00 +13°C° 0 mm 3 mps 772 mmHg 55%
    11:00 +15°C° 0 mm 2 mps 772 mmHg 50%
    12:00 +17°C° 0 mm 2 mps 771 mmHg 44%
    13:00 +18°C° 0 mm 2 mps 770 mmHg 39%
    14:00 +18°C° 0 mm 2 mps 770 mmHg 41%
    15:00 +17°C° 0 mm 2 mps 770 mmHg 43%
    16:00 +16°C° 0 mm 2 mps 770 mmHg 46%
    17:00 +14°C° 0 mm 2 mps 770 mmHg 53%
    18:00 +13°C° 0 mm 2 mps 771 mmHg 61%
    19:00 +11°C° 0 mm 1 mps 772 mmHg 69%
    20:00 +10°C° 0 mm 1 mps 772 mmHg 72%
    21:00 +10°C° 0 mm 1 mps 772 mmHg 75%
    22:00 +9°C° 0 mm 1 mps 773 mmHg 78%
    23:00 +9°C° 0 mm 1 mps 773 mmHg 80%

    26 June, Tuesday

    Time Temperature Precipitation Wind Pressure Humidity
    00:00 +9°C° 0 mm 1 mps 773 mmHg 82%
    01:00 +7°C° 0 mm 2 mps 773 mmHg 84%
    02:00 +7°C° 0 mm 2 mps 773 mmHg 85%
    03:00 +7°C° 0 mm 2 mps 773 mmHg 86%
    04:00 +6°C° 0 mm 2 mps 773 mmHg 86%
    05:00 +6°C° 0 mm 2 mps 773 mmHg 87%
    06:00 +6°C° 0 mm 2 mps 773 mmHg 87%
    07:00 +6°C° 0 mm 2 mps 773 mmHg 88%
    08:00 +8°C° 0 mm 2 mps 774 mmHg 78%
    09:00 +12°C° 0 mm 2 mps 774 mmHg 68%
    10:00 +14°C° 0 mm 1 mps 774 mmHg 58%
    11:00 +16°C° 0 mm 1 mps 773 mmHg 55%
    12:00 +18°C° 0 mm 1 mps 773 mmHg 52%
    13:00 +19°C° 0 mm 1 mps 772 mmHg 49%
    14:00 +17°C° 0 mm 2 mps 772 mmHg 52%
    15:00 +17°C° 0 mm 2 mps 772 mmHg 55%
    16:00 +16°C° 0 mm 2 mps 772 mmHg 58%
    17:00 +15°C° 0 mm 2 mps 772 mmHg 64%
    18:00 +13°C° 0 mm 2 mps 772 mmHg 71%
    19:00 +12°C° 0 mm 2 mps 773 mmHg 78%
    20:00 +10°C° 0 mm 2 mps 773 mmHg 80%
    21:00 +10°C° 0 mm 2 mps 773 mmHg 81%
    22:00 +10°C° 0 mm 2 mps 773 mmHg 83%
    23:00 +9°C° 0 mm 2 mps 773 mmHg 85%

    27 June, Wednesday

    Time Temperature Precipitation Wind Pressure Humidity
    00:00 +9°C° 0 mm 2 mps 773 mmHg 87%
    01:00 +9°C° 0 mm 2 mps 772 mmHg 89%
    02:00 +8°C° 0 mm 2 mps 772 mmHg 90%
    03:00 +9°C° 0 mm 1 mps 772 mmHg 91%
    04:00 +9°C° 0 mm 1 mps 772 mmHg 92%
    05:00 +9°C° 0 mm 1 mps 772 mmHg 92%
    06:00 +9°C° 0 mm 1 mps 772 mmHg 92%
    07:00 +9°C° 0 mm 1 mps 772 mmHg 93%
    08:00 +11°C° 0 mm 1 mps 772 mmHg 84%
    09:00 +13°C° 0 mm 1 mps 772 mmHg 76%
    10:00 +15°C° 0 mm 1 mps 771 mmHg 68%
    11:00 +16°C° 0.2 mm 1 mps 771 mmHg 66%
    12:00 +18°C° 0.2 mm 1 mps 770 mmHg 65%
    13:00 +19°C° 0.2 mm 1 mps 769 mmHg 63%
    14:00 +17°C° 0.1 mm 2 mps 769 mmHg 67%
    15:00 +17°C° 0.1 mm 2 mps 769 mmHg 71%
    16:00 +16°C° 0.1 mm 3 mps 769 mmHg 75%
    17:00 +14°C° 0.6 mm 3 mps 769 mmHg 80%
    18:00 +13°C° 0.6 mm 3 mps 769 mmHg 85%
    19:00 +13°C° 0.6 mm 3 mps 769 mmHg 90%
    20:00 +12°C° 0.7 mm 3 mps 769 mmHg 92%
    21:00 +12°C° 0.7 mm 3 mps 769 mmHg 93%
    22:00 +12°C° 0.7 mm 3 mps 769 mmHg 95%
    23:00 +12°C° 0.2 mm 3 mps 768 mmHg 94%

    28 June, Thursday

    Time Temperature Precipitation Wind Pressure Humidity
    00:00 +12°C° 0.2 mm 3 mps 768 mmHg 93%
    01:00 +12°C° 0.2 mm 2 mps 767 mmHg 92%
    02:00 +11°C° 0.1 mm 3 mps 767 mmHg 93%
    03:00 +10°C° 0.1 mm 3 mps 767 mmHg 93%
    04:00 +10°C° 0.1 mm 3 mps 767 mmHg 93%
    05:00 +10°C° 0 mm 3 mps 767 mmHg 93%
    06:00 +9°C° 0 mm 3 mps 767 mmHg 93%
    07:00 +9°C° 0 mm 3 mps 767 mmHg 93%
    08:00 +10°C° 0 mm 3 mps 767 mmHg 86%
    09:00 +13°C° 0 mm 2 mps 767 mmHg 79%
    10:00 +15°C° 0 mm 2 mps 767 mmHg 72%
    11:00 +16°C° 0 mm 2 mps 766 mmHg 63%
    12:00 +18°C° 0 mm 2 mps 765 mmHg 54%
    13:00 +19°C° 0 mm 2 mps 765 mmHg 45%
    14:00 +19°C° 0 mm 2 mps 765 mmHg 46%
    15:00 +18°C° 0 mm 2 mps 765 mmHg 48%
    16:00 +18°C° 0 mm 2 mps 764 mmHg 49%
    17:00 +16°C° 0 mm 2 mps 765 mmHg 56%
    18:00 +14°C° 0 mm 2 mps 765 mmHg 63%
    19:00 +13°C° 0 mm 2 mps 765 mmHg 70%
    20:00 +12°C° 0 mm 2 mps 766 mmHg 72%
    21:00 +11°C° 0 mm 3 mps 766 mmHg 74%
    22:00 +11°C° 0 mm 3 mps 766 mmHg 76%
    23:00 +10°C° 0 mm 3 mps 765 mmHg 76%
    Show more